Location: Bonny Doon Airfield
(37.0704°N, 122.1252°W)
Time: 02:35:01
(UTC-08:00)

Vanguard 1 Rocket - Pass Details

Date: 26 October 2017
Orbit: 655 x 4222 km, 34.3° (Epoch: 18 November)

Event Time Altitude Azimuth Distance (km) Brightness Sun altitude
Rises 08:40:13 0° 265° (W) 5,117 10.7 12.7°
Reaches altitude 10° 08:44:20 10° 264° (W) 3,593 10.0 13.5°
Maximum altitude 08:52:23 70° 183° (S) 986 8.0 14.9°
Drops below altitude 10° 08:57:16 10° 99° (E) 2,218 11.0 15.7°
Sets 08:59:16 0° 97° (E) 3,030 11.4 16.1°
